QPF
0.00 0.00 0.00 0.00 0.00 0.00 0.00 0.01 0.01 0.00 0.00 0.00 0.00 0.00 0.00 0.00 0.00 0.02 0.09 0.05 0.01 0.00 0.00 0.00 0.00 0.00 0.00 0.00 0.00 0.00 0.00 0.00 0.00 0.00 0.00 0.00 0.00 0.00 0.00 0.00 0.00 0.00 0.00
0.00 0.00 0.00 0.00 0.00 0.00 0.00 0.00 0.01 0.02 0.00 0.00 0.00 0.00 0.02 0.02 0.02 0.03 0.12 0.13 0.05 0.01 0.00 0.00 0.00 0.00 0.00 0.00 0.00 0.00 0.00 0.00 0.00 0.00 0.00 0.00 0.00 0.00 0.00 0.00 0.00 0.00 0.00
0.00 0.00 0.00 0.00 0.00 0.00 0.00 0.00 0.00 0.02 0.04 0.06 0.05 0.06 0.06 0.03 0.01 0.00 0.01 0.08 0.12 0.08 0.02 0.00 0.00 0.00 0.00 0.00 0.00 0.00 0.00 0.00 0.00 0.00 0.00 0.00 0.00 0.00 0.00 0.00 0.00 0.00 0.00
0.00 0.00 0.00 0.00 0.00 0.00 0.01 0.01 0.02 0.07 0.15 0.15 0.09 0.06 0.02 0.01 0.01 0.02 0.01 0.06 0.15 0.15 0.08 0.01 0.00 0.00 0.00 0.00 0.00 0.00 0.00 0.00 0.00 0.00 0.00 0.00 0.00 0.00 0.00 0.00 0.00 0.00 0.00
0.00 0.00 0.00 0.00 0.00 0.00 0.00 0.00 0.03 0.07 0.09 0.14 0.12 0.14 0.09 0.07 0.03 0.00 0.00 0.01 0.03 0.04 0.04 0.02 0.01 0.00 0.00 0.00 0.00 0.00 0.00 0.00 0.00 0.00 0.00 0.00 0.00 0.00 0.00 0.00 0.00 0.00 0.00
0.00 0.00 0.00 0.00 0.00 0.00 0.00 0.00 0.01 0.04 0.10 0.13 0.16 0.14 0.13 0.12 0.06 0.03 0.02 0.01 0.01 0.02 0.01 0.02 0.02 0.01 0.00 0.00 0.00 0.00 0.00 0.00 0.00 0.00 0.00 0.00 0.00 0.00 0.00 0.00 0.00 0.00 0.00
0.00 0.00 0.00 0.00 0.00 0.00 0.00 0.00 0.04 0.04 0.08 0.12 0.15 0.14 0.11 0.09 0.06 0.07 0.04 0.01 0.00 0.00 0.00 0.01 0.01 0.01 0.01 0.00 0.00 0.00 0.00 0.00 0.00 0.00 0.00 0.00 0.00 0.00 0.00 0.00 0.00 0.00 0.00
0.00 0.00 0.00 0.00 0.00 0.00 0.00 0.00 0.01 0.02 0.06 0.08 0.12 0.13 0.11 0.06 0.06 0.06 0.06 0.04 0.03 0.02 0.01 0.00 0.00 0.01 0.01 0.00 0.00 0.00 0.00 0.00 0.00 0.00 0.00 0.00 0.00 0.00 0.00 0.00 0.00 0.00 0.00
0.00 0.00 0.00 0.00 0.00 0.00 0.00 0.02 0.03 0.02 0.04 0.06 0.06 0.07 0.07 0.05 0.03 0.03 0.03 0.03 0.02 0.02 0.01 0.00 0.00 0.00 0.00 0.00 0.00 0.00 0.00 0.00 0.00 0.00 0.00 0.00 0.00 0.00 0.00 0.00 0.00 0.00 0.00
0.00 0.00 0.00 0.00 0.00 0.00 0.00 0.00 0.00 0.01 0.01 0.01 0.02 0.01 0.01 0.01 0.01 0.00 0.01 0.00 0.00 0.00 0.00 0.00 0.00 0.00 0.00 0.00 0.00 0.00 0.00 0.00 0.00 0.00 0.00 0.00 0.00 0.00 0.00 0.00 0.00 0.00 0.00
0.00 0.00 0.00 0.00 0.00 0.00 0.00 0.00 0.00 0.00 0.00 0.01 0.01 0.01 0.00 0.00 0.00 0.00 0.00 0.00 0.00 0.00 0.00 0.00 0.00 0.00 0.00 0.00 0.00 0.00 0.00 0.00 0.00 0.00 0.00 0.00 0.00 0.00 0.00 0.00 0.00 0.00 0.00
0.00 0.00 0.00 0.00 0.00 0.00 0.00 0.00 0.00 0.00 0.00 0.00 0.00 0.00 0.01 0.01 0.01 0.00 0.00 0.00 0.00 0.00 0.00 0.00 0.00 0.00 0.00 0.00 0.00 0.00 0.00 0.00 0.00 0.00 0.00 0.00 0.00 0.00 0.00 0.00 0.00 0.00 0.00
0.00 0.00 0.00 0.00 0.00 0.00 0.00 0.00 0.00 0.00 0.00 0.00 0.00 0.00 0.00 0.00 0.01 0.01 0.00 0.00 0.00 0.00 0.00 0.00 0.00 0.00 0.00 0.00 0.00 0.00 0.00 0.00 0.00 0.00 0.00 0.00 0.00 0.00 0.00 0.00 0.00 0.00 0.00
0.00 0.00 0.00 0.00 0.00 0.00 0.00 0.00 0.00 0.00 0.00 0.00 0.00 0.00 0.00 0.00 0.00 0.00 0.00 0.01 0.01 0.00 0.00 0.00 0.00 0.00 0.00 0.00 0.00 0.00 0.00 0.00 0.00 0.00 0.00 0.00 0.00 0.00 0.00 0.00 0.00 0.00 0.00
0.00 0.00 0.00 0.00 0.00 0.00 0.00 0.00 0.00 0.00 0.00 0.00 0.00 0.01 0.01 0.01 0.01 0.01 0.00 0.00 0.01 0.01 0.00 0.00 0.00 0.00 0.00 0.00 0.00 0.00 0.00 0.00 0.00 0.00 0.00 0.00 0.00 0.00 0.00 0.00 0.00 0.00 0.00
0.00 0.00 0.00 0.00 0.00 0.00 0.00 0.00 0.00 0.00 0.00 0.00 0.00 0.02 0.02 0.01 0.01 0.00 0.00 0.00 0.00 0.00 0.00 0.00 0.00 0.00 0.00 0.00 0.00 0.00 0.00 0.00 0.00 0.00 0.00 0.00 0.00 0.00 0.00 0.00 0.00 0.00 0.00
0.00 0.00 0.00 0.00 0.00 0.00 0.00 0.00 0.00 0.00 0.00 0.00 0.00 0.00 0.00 0.00 0.00 0.00 0.00 0.00 0.00 0.00 0.00 0.00 0.00 0.00 0.00 0.00 0.00 0.00 0.00 0.00 0.00 0.00 0.00 0.00 0.00 0.00 0.00 0.00 0.00 0.00 0.00
0.00 0.00 0.00 0.00 0.00 0.00 0.00 0.00 0.00 0.00 0.00 0.00 0.00 0.00 0.00 0.00 0.00 0.00 0.00 0.00 0.00 0.00 0.00 0.00 0.00 0.00 0.00 0.00 0.00 0.00 0.00 0.00 0.00 0.00 0.00 0.00 0.00 0.00 0.00 0.00 0.00 0.00 0.00
0.00 0.00 0.00 0.00 0.00 0.00 0.00 0.00 0.00 0.00 0.00 0.00 0.00 0.00 0.00 0.00 0.00 0.00 0.00 0.00 0.00 0.00 0.00 0.00 0.00 0.00 0.00 0.00 0.00 0.00 0.00 0.00 0.00 0.00 0.00 0.00 0.00 0.00 0.00 0.00 0.00 0.00 0.00
0.00 0.00 0.00 0.00 0.00 0.00 0.00 0.00 0.00 0.00 0.00 0.00 0.00 0.00 0.00 0.00 0.00 0.00 0.00 0.01 0.01 0.01 0.00 0.00 0.00 0.00 0.00 0.00 0.00 0.00 0.00 0.00 0.00 0.00 0.00 0.00 0.00 0.00 0.00 0.00 0.00 0.00 0.00
0.00 0.00 0.00 0.00 0.00 0.00 0.00 0.00 0.00 0.00 0.00 0.00 0.00 0.00 0.00 0.00 0.00 0.00 0.00 0.00 0.01 0.01 0.01 0.00 0.00 0.00 0.00 0.00 0.00 0.00 0.00 0.00 0.00 0.00 0.00 0.00 0.00 0.00 0.00 0.00 0.00 0.00 0.00
0.00 0.00 0.00 0.00 0.00 0.00 0.00 0.00 0.00 0.00 0.00 0.00 0.00 0.00 0.00 0.00 0.00 0.00 0.00 0.00 0.00 0.01 0.00 0.00 0.00 0.00 0.00 0.00 0.00 0.00 0.00 0.00 0.00 0.00 0.00 0.00 0.00 0.00 0.00 0.00 0.00 0.00 0.00
0.00 0.00 0.00 0.00 0.00 0.00 0.00 0.01 0.01 0.01 0.01 0.00 0.00 0.00 0.00 0.00 0.00 0.00 0.00 0.00 0.00 0.00 0.00 0.00 0.00 0.00 0.00 0.00 0.00 0.00 0.00 0.00 0.00 0.00 0.00 0.00 0.00 0.00 0.00 0.00 0.00 0.00 0.00
0.00 0.00 0.00 0.00 0.00 0.00 0.00 0.00 0.01 0.01 0.00 0.00 0.00 0.00 0.00 0.00 0.00 0.00 0.00 0.00 0.00 0.00 0.00 0.00 0.00 0.00 0.00 0.00 0.00 0.00 0.00 0.00 0.00 0.00 0.00 0.00 0.00 0.00 0.00 0.00 0.00 0.00 0.00
0.00 0.00 0.00 0.00 0.00 0.00 0.00 0.01 0.02 0.02 0.01 0.00 0.00 0.00 0.00 0.00 0.00 0.00 0.00 0.00 0.00 0.00 0.00 0.00 0.00 0.00 0.00 0.00 0.00 0.00 0.00 0.00 0.00 0.00 0.00 0.00 0.00 0.00 0.00 0.00 0.00 0.00 0.00
0.00 0.00 0.00 0.00 0.00 0.00 0.01 0.02 0.01 0.00 0.00 0.00 0.00 0.00 0.00 0.00 0.00 0.00 0.00 0.00 0.00 0.00 0.00 0.00 0.00 0.00 0.00 0.00 0.00 0.00 0.00 0.00 0.00 0.00 0.00 0.00 0.00 0.00 0.00 0.00 0.00 0.00 0.00
MSLP
1007.10 1006.37 1006.00 1005.27 1004.11 1004.09 1004.37 1004.27 1005.03 1004.95 1005.40 1006.14 1006.69 1007.34 1007.10 1007.64 1008.22 1008.70 1008.87 1009.73 1011.06 1011.64 1012.25 1013.96 1014.06 1014.82 1015.34 1016.03 1017.01 1017.96 1018.51 1019.50 1020.17 1021.18 1022.52 1022.93 1022.95 1023.10 1023.18 1023.22 1023.51 1023.69 1024.05
1007.76 1007.28 1006.65 1006.26 1005.62 1004.70 1004.51 1004.65 1004.51 1004.60 1004.96 1005.23 1005.33 1006.18 1006.72 1007.50 1007.69 1008.16 1008.49 1008.95 1009.55 1010.68 1011.40 1012.57 1013.10 1014.44 1014.91 1015.70 1016.34 1017.03 1018.38 1018.94 1019.38 1020.30 1021.65 1022.87 1023.39 1023.33 1023.49 1023.54 1023.61 1023.91 1024.23
1009.21 1008.46 1007.66 1007.14 1006.82 1006.39 1005.41 1004.21 1004.11 1004.16 1004.25 1004.82 1006.06 1006.46 1006.56 1007.17 1007.77 1007.93 1008.01 1008.20 1008.73 1009.48 1010.36 1011.65 1012.02 1013.00 1013.79 1014.77 1015.33 1016.06 1016.99 1018.05 1019.05 1018.97 1019.68 1021.64 1022.16 1022.84 1023.52 1023.66 1023.81 1024.14 1024.49
1010.02 1009.22 1008.66 1008.00 1007.45 1007.03 1006.18 1004.85 1004.14 1003.86 1003.89 1004.13 1004.24 1004.57 1004.78 1005.45 1005.46 1006.30 1007.34 1007.72 1008.18 1009.03 1009.67 1010.36 1011.25 1012.41 1013.00 1013.91 1014.57 1015.21 1015.92 1016.77 1018.14 1018.99 1018.92 1019.03 1019.80 1021.74 1023.29 1023.42 1023.75 1024.20 1024.49
1010.16 1009.67 1009.02 1008.75 1008.11 1007.31 1007.00 1006.18 1004.94 1004.14 1003.54 1003.55 1003.30 1003.76 1004.11 1004.79 1005.56 1005.77 1006.21 1006.97 1007.58 1008.00 1008.86 1009.52 1010.35 1011.22 1012.01 1012.94 1013.76 1014.99 1015.37 1015.90 1017.07 1017.74 1018.97 1019.28 1019.54 1020.21 1021.35 1022.78 1023.45 1024.13 1024.49
1010.19 1009.49 1008.76 1008.26 1008.35 1007.78 1006.73 1005.93 1006.10 1005.27 1004.15 1003.19 1003.33 1003.22 1003.73 1003.82 1004.82 1005.39 1005.51 1006.10 1006.74 1007.38 1007.84 1008.63 1009.32 1010.28 1011.29 1012.01 1012.65 1014.02 1014.77 1015.53 1016.35 1017.26 1018.06 1018.55 1019.08 1019.93 1020.67 1021.93 1023.08 1023.81 1024.43
1010.41 1009.58 1009.02 1008.32 1007.85 1007.37 1006.98 1006.87 1005.69 1005.70 1004.99 1003.96 1003.43 1003.23 1003.25 1003.50 1002.94 1003.41 1004.11 1004.84 1004.86 1005.85 1006.73 1007.68 1008.70 1009.59 1010.50 1011.38 1012.21 1013.34 1014.36 1015.08 1016.10 1016.85 1017.69 1018.09 1018.51 1018.87 1019.89 1020.92 1022.39 1023.28 1024.31
1009.92 1009.35 1008.80 1008.43 1008.32 1007.71 1007.41 1006.90 1005.89 1005.42 1005.04 1005.48 1005.01 1004.41 1004.09 1003.95 1004.04 1001.52 1002.86 1003.85 1004.57 1004.08 1005.08 1006.45 1007.57 1008.73 1009.96 1011.17 1011.97 1012.85 1013.94 1014.60 1015.63 1016.66 1017.31 1018.04 1018.58 1018.78 1019.23 1020.12 1021.25 1023.23 1023.92
1009.38 1009.03 1008.62 1008.28 1008.08 1008.10 1007.77 1007.09 1006.60 1005.67 1005.86 1005.68 1005.08 1006.32 1004.40 1004.87 1004.94 1005.43 1005.79 1004.44 1004.76 1004.68 1005.42 1006.16 1007.36 1008.46 1009.67 1010.90 1011.90 1012.81 1013.66 1014.40 1015.56 1016.47 1017.20 1018.16 1019.03 1019.17 1019.44 1019.62 1020.21 1021.60 1023.42
1009.44 1009.00 1008.94 1008.65 1008.15 1007.80 1007.59 1007.34 1006.79 1005.91 1005.61 1006.03 1005.16 1005.25 1005.50 1005.51 1005.03 1005.93 1005.65 1006.23 1006.50 1006.32 1006.02 1006.73 1007.53 1008.67 1009.71 1010.76 1011.64 1012.76 1013.58 1014.43 1015.54 1016.34 1017.62 1017.59 1018.59 1018.48 1019.50 1020.13 1020.43 1020.84 1021.72
1009.45 1009.02 1008.49 1008.21 1007.93 1007.84 1007.46 1007.14 1006.78 1006.47 1006.20 1006.22 1005.49 1005.33 1005.65 1005.15 1006.37 1006.09 1005.62 1006.57 1007.18 1007.31 1007.43 1007.86 1007.80 1008.67 1009.86 1010.84 1011.63 1012.69 1013.63 1014.43 1015.53 1016.46 1016.92 1017.60 1018.31 1019.19 1019.50 1020.36 1020.69 1020.71 1021.59
1009.07 1008.57 1007.98 1008.06 1008.01 1007.59 1007.10 1006.93 1006.94 1006.71 1006.35 1005.82 1005.35 1005.21 1006.06 1006.41 1005.49 1004.62 1006.02 1006.62 1007.11 1007.46 1008.19 1008.86 1008.90 1009.10 1009.96 1010.71 1011.42 1012.45 1013.30 1013.90 1015.01 1016.04 1016.58 1017.77 1018.03 1018.83 1019.60 1019.93 1020.57 1021.33 1021.61
1008.61 1008.26 1007.96 1007.99 1008.02 1007.69 1007.04 1006.53 1006.06 1006.31 1006.32 1005.80 1005.68 1005.72 1004.97 1005.57 1005.17 1004.34 1005.52 1006.66 1006.81 1006.62 1007.86 1008.67 1009.22 1009.65 1009.83 1010.56 1011.14 1011.77 1012.64 1013.41 1014.31 1015.43 1016.39 1017.30 1018.02 1018.86 1019.26 1020.08 1020.74 1021.24 1021.39
1008.41 1008.32 1007.98 1007.90 1007.69 1007.49 1007.12 1006.76 1006.35 1005.72 1005.53 1005.31 1005.36 1005.24 1005.07 1004.74 1004.86 1005.01 1005.41 1006.05 1005.94 1006.34 1007.30 1008.05 1008.86 1009.42 1009.86 1010.39 1011.28 1011.85 1012.70 1013.67 1014.37 1015.34 1016.32 1017.08 1017.51 1018.24 1019.26 1020.07 1020.78 1021.16 1021.35
1008.60 1008.07 1008.14 1008.16 1007.82 1007.49 1007.15 1006.65 1006.27 1005.70 1005.23 1005.07 1004.88 1004.73 1004.84 1004.70 1004.93 1004.94 1004.79 1005.48 1005.90 1006.60 1006.74 1007.59 1008.71 1008.93 1009.81 1010.38 1011.01 1011.88 1012.70 1013.50 1014.67 1015.61 1016.34 1017.13 1017.84 1018.62 1019.38 1020.10 1020.80 1021.30 1021.67
1008.98 1008.64 1008.44 1008.16 1007.72 1007.25 1006.87 1006.55 1006.32 1005.67 1005.08 1004.89 1005.04 1004.92 1004.57 1004.65 1004.76 1004.70 1004.87 1005.13 1005.91 1006.30 1006.92 1007.38 1007.79 1008.94 1009.73 1010.45 1011.02 1011.85 1012.79 1013.65 1014.67 1015.92 1016.84 1017.50 1018.43 1019.21 1019.81 1020.50 1021.10 1021.44 1021.79
1008.67 1008.70 1008.54 1008.22 1007.70 1007.14 1006.68 1006.37 1005.74 1005.25 1005.01 1004.72 1004.59 1004.63 1004.62 1004.71 1004.45 1004.52 1004.90 1005.19 1005.69 1006.49 1006.70 1007.13 1007.35 1008.94 1009.63 1010.25 1011.03 1011.77 1012.82 1013.66 1014.67 1015.73 1016.93 1017.82 1018.74 1019.52 1020.39 1021.06 1021.59 1022.09 1022.19
1008.40 1008.10 1007.98 1007.61 1007.13 1006.71 1006.31 1005.74 1005.15 1004.99 1004.80 1004.56 1004.42 1004.47 1004.63 1004.70 1004.30 1004.87 1005.32 1005.64 1006.09 1006.30 1007.00 1007.31 1007.63 1008.48 1009.76 1010.52 1011.19 1011.97 1013.24 1014.16 1014.93 1015.92 1016.82 1017.60 1019.08 1019.79 1020.56 1021.37 1021.97 1022.59 1023.22
1007.94 1007.50 1007.09 1006.90 1006.62 1006.36 1005.71 1005.44 1005.14 1004.93 1004.78 1004.67 1004.81 1005.07 1005.12 1005.18 1005.21 1004.88 1005.19 1005.59 1005.92 1006.51 1006.57 1007.06 1007.65 1008.44 1009.79 1010.52 1011.33 1012.06 1013.47 1014.53 1015.44 1016.35 1017.28 1017.86 1019.15 1019.90 1020.57 1021.36 1022.36 1023.27 1023.78
1007.52 1007.10 1006.59 1006.43 1006.29 1005.87 1005.49 1005.35 1005.02 1004.86 1004.61 1004.46 1004.63 1004.96 1005.40 1005.35 1005.05 1004.64 1005.10 1005.44 1005.70 1006.30 1006.51 1006.99 1007.94 1008.84 1009.87 1010.52 1011.30 1011.92 1013.45 1014.65 1015.36 1016.64 1017.67 1018.26 1018.98 1020.00 1020.65 1021.63 1022.55 1023.33 1024.24
1006.75 1006.25 1006.04 1005.80 1005.42 1004.96 1004.75 1004.83 1004.59 1004.51 1004.15 1004.52 1004.76 1004.94 1005.13 1005.12 1004.89 1004.70 1004.83 1005.17 1005.51 1006.02 1006.68 1007.52 1008.19 1009.01 1009.92 1011.15 1011.45 1011.78 1013.14 1014.15 1015.33 1016.35 1017.56 1018.57 1019.32 1020.17 1020.79 1021.76 1022.51 1023.30 1023.94
1006.06 1005.65 1005.47 1005.08 1004.53 1004.25 1004.37 1004.29 1004.16 1003.82 1004.49 1004.88 1005.10 1005.00 1004.88 1004.74 1004.62 1004.58 1004.81 1005.07 1005.46 1006.07 1006.75 1007.64 1008.55 1009.23 1009.88 1010.88 1011.75 1012.28 1013.05 1014.03 1014.60 1015.93 1017.40 1018.49 1019.58 1020.43 1021.36 1021.50 1022.28 1023.17 1024.61
1005.34 1004.98 1004.76 1004.39 1004.01 1003.84 1003.99 1004.10 1003.75 1004.16 1004.57 1004.96 1005.18 1005.20 1004.84 1004.85 1004.81 1005.03 1005.00 1005.36 1005.48 1006.02 1006.75 1007.57 1008.38 1009.01 1010.16 1010.94 1011.87 1012.40 1013.35 1014.10 1015.02 1016.16 1017.56 1018.59 1019.62 1020.55 1021.45 1021.75 1022.34 1023.06 1024.41
1004.70 1004.29 1004.02 1003.90 1003.64 1003.36 1003.26 1003.51 1003.89 1004.31 1004.67 1004.83 1005.02 1004.97 1004.85 1004.97 1004.93 1004.88 1005.07 1005.19 1005.37 1006.09 1006.59 1007.27 1008.18 1009.48 1010.26 1010.68 1011.66 1012.85 1013.72 1014.66 1015.45 1016.57 1017.66 1018.93 1019.78 1020.66 1021.26 1021.74 1022.71 1022.99 1023.90
1004.08 1003.73 1003.41 1003.22 1002.99 1002.94 1003.14 1003.38 1003.77 1004.36 1004.87 1004.89 1004.90 1004.92 1004.87 1004.94 1005.07 1005.18 1005.23 1005.28 1005.60 1005.56 1006.14 1007.11 1007.77 1008.65 1009.82 1010.76 1011.44 1012.72 1013.79 1014.65 1015.68 1016.76 1017.84 1018.98 1020.26 1020.95 1021.80 1022.29 1022.63 1022.90 1023.81
1003.47 1003.14 1002.81 1002.54 1002.61 1002.74 1002.84 1003.13 1003.31 1003.68 1004.48 1004.91 1004.90 1004.98 1004.92 1005.12 1005.30 1005.36 1005.65 1005.87 1005.98 1006.45 1006.90 1007.55 1007.84 1008.80 1009.83 1011.20 1011.95 1013.10 1014.06 1014.91 1015.73 1017.01 1018.19 1019.03 1020.06 1021.27 1021.91 1022.40 1022.51 1022.89 1023.78
Thickness
5697 5705 5707 5712 5725 5725 5722 5720 5710 5711 5705 5696 5688 5682 5688 5686 5682 5679 5677 5673 5659 5653 5646 5637 5635 5633 5631 5626 5618 5610 5607 5599 5594 5585 5575 5570 5570 5570 5569 5567 5565 5562 5559
5685 5690 5695 5695 5697 5707 5707 5706 5709 5709 5702 5695 5692 5683 5676 5671 5673 5672 5669 5665 5660 5651 5645 5635 5629 5622 5622 5615 5611 5607 5596 5593 5591 5583 5571 5560 5559 5559 5556 5556 5554 5552 5549
5663 5670 5677 5680 5679 5679 5687 5698 5700 5701 5698 5687 5674 5668 5667 5662 5656 5658 5661 5661 5654 5650 5640 5630 5630 5620 5614 5609 5607 5603 5598 5589 5582 5585 5576 5557 5557 5551 5546 5544 5543 5541 5537
5646 5653 5657 5662 5663 5664 5667 5680 5687 5689 5690 5687 5680 5676 5675 5667 5667 5660 5652 5651 5646 5638 5634 5626 5621 5614 5610 5604 5600 5597 5593 5587 5580 5571 5574 5570 5565 5549 5536 5537 5533 5529 5528
5627 5629 5636 5635 5640 5647 5648 5652 5664 5672 5676 5675 5678 5671 5667 5662 5652 5650 5647 5642 5638 5635 5626 5622 5615 5609 5605 5595 5591 5584 5584 5581 5576 5574 5560 5557 5555 5552 5544 5531 5525 5519 5516
5613 5618 5624 5628 5623 5624 5633 5637 5635 5642 5651 5661 5661 5662 5658 5655 5642 5635 5634 5631 5628 5623 5619 5614 5609 5604 5598 5594 5590 5580 5575 5571 5567 5561 5556 5552 5549 5542 5536 5525 5517 5512 5506
5589 5597 5603 5606 5609 5608 5612 5610 5620 5620 5626 5637 5645 5647 5648 5644 5645 5636 5630 5625 5627 5618 5611 5604 5598 5595 5591 5586 5580 5573 5567 5561 5556 5551 5545 5542 5538 5537 5529 5521 5508 5503 5494
5573 5575 5578 5581 5578 5582 5584 5586 5594 5600 5605 5602 5607 5615 5619 5620 5609 5620 5612 5618 5616 5614 5603 5593 5589 5586 5580 5574 5568 5563 5556 5553 5545 5538 5534 5528 5524 5523 5521 5513 5503 5486 5482
5556 5552 5556 5558 5560 5557 5558 5562 5567 5579 5578 5581 5588 5578 5598 5593 5591 5591 5588 5593 5600 5585 5582 5575 5572 5570 5566 5560 5555 5549 5548 5541 5531 5525 5520 5514 5508 5506 5505 5504 5498 5485 5469
5533 5537 5532 5532 5540 5544 5544 5546 5550 5558 5563 5560 5569 5553 5564 5563 5573 5569 5570 5564 5562 5559 5560 5558 5558 5553 5550 5545 5540 5535 5532 5527 5519 5513 5504 5505 5496 5497 5489 5484 5481 5479 5470
5514 5518 5520 5520 5524 5527 5529 5532 5537 5541 5542 5541 5545 5547 5542 5553 5549 5551 5558 5548 5544 5540 5537 5538 5544 5541 5536 5531 5527 5521 5516 5512 5504 5498 5495 5488 5483 5477 5475 5469 5468 5466 5459
5505 5508 5514 5506 5509 5512 5516 5515 5513 5518 5523 5526 5533 5536 5528 5524 5531 5543 5537 5534 5530 5524 5518 5514 5519 5524 5521 5518 5515 5508 5505 5502 5494 5488 5482 5472 5472 5466 5462 5459 5454 5447 5445
5496 5493 5494 5493 5493 5495 5498 5502 5509 5507 5507 5512 5512 5516 5526 5519 5524 5529 5531 5523 5520 5523 5510 5504 5502 5503 5506 5504 5503 5501 5496 5490 5485 5477 5470 5463 5459 5454 5451 5446 5439 5436 5435
5481 5478 5478 5480 5480 5484 5485 5487 5489 5495 5500 5503 5503 5504 5509 5514 5513 5514 5515 5511 5516 5516 5506 5500 5493 5491 5490 5490 5484 5482 5479 5474 5471 5464 5457 5452 5450 5445 5438 5432 5427 5424 5423
5463 5469 5467 5464 5466 5469 5471 5474 5476 5479 5483 5487 5490 5494 5493 5497 5497 5502 5506 5502 5500 5497 5499 5493 5483 5484 5479 5477 5474 5469 5465 5461 5454 5447 5443 5438 5434 5431 5425 5420 5414 5410 5407
5443 5446 5446 5449 5454 5459 5461 5463 5463 5467 5470 5470 5472 5477 5479 5481 5482 5485 5489 5493 5485 5486 5484 5482 5481 5471 5469 5463 5461 5457 5451 5446 5439 5431 5425 5423 5417 5413 5410 5405 5400 5397 5393
5434 5430 5431 5433 5436 5441 5446 5448 5454 5458 5459 5461 5462 5463 5466 5469 5472 5473 5473 5474 5474 5469 5471 5470 5473 5461 5458 5454 5448 5444 5438 5435 5431 5425 5416 5410 5405 5400 5393 5388 5383 5378 5375
5421 5422 5423 5424 5427 5430 5432 5436 5442 5447 5449 5450 5450 5449 5451 5453 5460 5458 5458 5457 5457 5458 5455 5455 5455 5453 5443 5439 5437 5432 5425 5421 5418 5412 5407 5401 5390 5384 5377 5370 5364 5358 5350
5408 5411 5413 5412 5415 5419 5424 5425 5427 5430 5433 5436 5434 5429 5429 5432 5438 5444 5444 5444 5443 5443 5445 5443 5442 5438 5430 5428 5422 5418 5409 5404 5400 5394 5388 5384 5373 5368 5362 5356 5346 5336 5330
5395 5399 5404 5401 5399 5406 5407 5409 5412 5413 5419 5420 5419 5416 5413 5415 5421 5429 5428 5430 5433 5430 5429 5428 5424 5421 5416 5413 5407 5405 5396 5388 5385 5376 5369 5365 5359 5350 5345 5336 5326 5319 5311
5390 5394 5391 5389 5394 5398 5400 5398 5403 5401 5405 5402 5401 5400 5400 5403 5407 5411 5414 5416 5416 5415 5413 5411 5409 5405 5401 5394 5392 5392 5384 5377 5370 5362 5352 5344 5339 5333 5327 5317 5311 5303 5298
5379 5380 5378 5382 5387 5390 5387 5390 5388 5390 5383 5383 5382 5385 5390 5394 5397 5401 5402 5403 5403 5402 5400 5396 5391 5389 5385 5380 5377 5374 5370 5362 5358 5348 5336 5329 5322 5315 5308 5306 5298 5289 5279
5369 5370 5369 5373 5377 5377 5374 5373 5374 5369 5366 5367 5368 5371 5377 5380 5383 5386 5388 5387 5390 5390 5386 5383 5379 5376 5369 5365 5360 5358 5353 5348 5342 5332 5323 5317 5310 5301 5294 5289 5282 5279 5269
5367 5369 5366 5366 5369 5370 5367 5362 5357 5354 5352 5356 5358 5361 5364 5366 5368 5371 5374 5377 5379 5374 5371 5369 5366 5358 5356 5353 5347 5341 5336 5330 5325 5319 5311 5303 5296 5288 5283 5279 5270 5269 5263
5362 5361 5364 5365 5367 5364 5358 5351 5346 5343 5342 5347 5350 5353 5355 5357 5357 5358 5360 5362 5361 5363 5360 5355 5354 5350 5344 5339 5336 5330 5324 5320 5313 5306 5298 5291 5281 5275 5271 5266 5264 5262 5256
5356 5357 5361 5364 5362 5357 5353 5345 5343 5343 5340 5340 5343 5345 5347 5346 5345 5346 5345 5344 5344 5343 5341 5340 5340 5336 5332 5325 5322 5318 5312 5307 5301 5293 5287 5281 5278 5271 5263 5257 5257 5254 5245